CW6726 Weather Reports


time (UTC)temp
F
wind
direction
speed
knots
gust
knots
rain 1hr
in
rain 24hr
in
rain mn
in
humidity
%
barometer
mb
20260506031105 50 24 4.3 7.8 0.00 0.01 0.00 81 1009.7
20260506024605 50 14 0.9 6.1 0.00 0.01 0.00 81 1009.7
20260506024105 50 29 4.3 7.0 0.00 0.01 0.00 81 1009.7
20260506023105 50 26 4.3 6.1 0.00 0.01 0.00 80 1009.8
20260506022105 50 18 2.6 7.8 0.00 0.01 0.00 80 1009.8
20260506020605 51 16 2.6 4.3 0.00 0.01 0.00 79 1009.8
20260506015605 51 15 3.5 7.8 0.00 0.01 0.00 78 1009.8
20260506014605 51 12 3.5 6.1 0.00 0.01 0.00 78 1009.9
20260506014105 51 11 2.6 6.1 0.00 0.01 0.00 78 1009.8
20260506013605 51 10 2.6 6.1 0.00 0.01 0.00 78 1009.8
20260506012605 51 15 4.3 7.0 0.00 0.01 0.00 77 1009.8
20260506011605 52 8 2.6 10.4 0.00 0.01 0.00 77 1009.8
20260506010605 52 40 1.7 10.4 0.00 0.01 0.00 78 1009.8
20260506005105 52 34 4.3 7.8 0.00 0.01 0.00 78 1009.9
20260506004604 52 21 2.6 5.2 0.00 0.01 0.00 78 1009.9
20260506004105 52 24 4.3 10.4 0.00 0.01 0.00 78 1009.8
20260506003605 52 41 1.7 5.2 0.00 0.01 0.00 78 1009.8
20260506002106 53 53 4.3 7.8 0.00 0.01 0.00 77 1009.8
20260506000604 53 27 2.6 6.1 0.00 0.01 0.00 76 1009.8
20260505234604 53 16 4.3 7.0 0.00 0.01 0.00 76 1009.8
20260505234105 54 18 1.7 6.1 0.00 0.01 0.00 76 1009.8
20260505225105 54 38 4.3 7.8 0.00 0.01 0.01 74 1009.5
20260505223605 55 17 3.5 6.1 0.00 0.01 0.01 74 1009.6
20260505223104 55 11 4.3 7.8 0.00 0.01 0.01 74 1009.6
20260505222605 55 30 5.2 10.4 0.00 0.01 0.01 75 1009.6
20260505221605 55 10 2.6 6.1 0.00 0.01 0.01 74 1009.6
20260505221105 55 10 2.6 6.1 0.00 0.01 0.01 74 1009.6
20260505220605 55 10 1.7 5.2 0.00 0.01 0.01 73 1009.6
20260505220105 55 9 1.7 4.3 0.00 0.01 0.01 73 1009.6
20260505214605 55 9 4.3 6.1 0.00 0.01 0.01 72 1009.5
20260505213105 55 9 2.6 7.8 0.00 0.01 0.01 71 1009.5
20260505212105 55 355 1.7 6.1 0.00 0.02 0.01 71 1009.5
20260505211604 55 355 2.6 5.2 0.00 0.02 0.01 71 1009.5
20260505211104 55 347 3.5 6.1 0.00 0.02 0.01 71 1009.5
20260505210106 56 0 2.6 5.2 0.00 0.02 0.01 72 1009.5
20260505205604 56 0 1.7 5.2 0.00 0.02 0.01 72 1009.5
20260505204104 56 0 1.7 5.2 0.00 0.02 0.01 71 1009.4
20260505202605 56 0 2.6 5.2 0.00 0.02 0.01 71 1009.4
20260505201604 56 0 2.6 4.3 0.00 0.03 0.01 71 1009.4
20260505200105 57 0 0.9 2.6 0.00 0.03 0.01 71 1009.3
20260505194604 57 5 2.6 5.2 0.00 0.03 0.01 70 1009.1
20260505193105 57 9 1.7 5.2 0.00 0.03 0.01 70 1009.0
20260505191605 57 9 2.6 5.2 0.00 0.03 0.01 70 1008.9
20260505190605 57 10 1.7 7.0 0.00 0.03 0.01 69 1008.9
20260505185104 58 11 1.7 7.0 0.00 0.04 0.01 69 1008.9
20260505184605 58 7 4.3 10.4 0.00 0.04 0.01 69 1008.9
20260505183605 58 355 1.7 5.2 0.00 0.05 0.01 69 1008.8
20260505183105 58 355 2.6 7.0 0.00 0.05 0.01 69 1008.8
20260505182604 58 355 4.3 5.2 0.00 0.05 0.01 68 1008.8
20260505182106 58 355 2.6 7.0 0.00 0.05 0.01 68 1008.7
20260505175105 59 345 2.6 7.8 0.00 0.08 0.01 68 1008.7
20260505174104 59 318 3.5 6.1 0.00 0.10 0.01 70 1008.7
20260505173604 59 11 1.7 4.3 0.00 0.11 0.01 70 1008.7
20260505173105 59 11 2.6 4.3 0.00 0.12 0.01 70 1008.7
20260505172605 59 11 2.6 5.2 0.00 0.12 0.01 70 1008.7
20260505172104 59 11 0.9 2.6 0.00 0.13 0.01 70 1008.8
20260505171605 59 11 2.6 4.3 0.00 0.13 0.01 70 1008.8
20260505170605 59 12 2.6 4.3 0.00 0.13 0.01 69 1008.9
20260505163604 59 22 1.7 7.0 0.00 0.15 0.01 68 1008.9
20260505163105 60 15 3.5 6.1 0.00 0.15 0.01 68 1008.9
20260505162105 60 42 4.3 7.8 0.00 0.15 0.01 67 1008.9
20260505161605 60 26 4.3 7.0 0.00 0.15 0.01 67 1008.9
20260505160605 60 13 3.5 8.7 0.00 0.15 0.01 65 1008.9
20260505153105 60 17 3.5 5.2 0.00 0.15 0.01 68 1009.0
20260505152604 60 19 3.5 6.1 0.00 0.15 0.01 67 1009.0
20260505152105 60 26 3.5 7.0 0.00 0.15 0.01 67 1009.0
20260505151605 60 36 4.3 7.8 0.00 0.15 0.01 68 1009.0
20260505151105 60 22 5.2 7.8 0.00 0.15 0.01 66 1009.0
20260505150605 60 5 3.5 6.1 0.00 0.15 0.01 66 1009.1
20260505140605 61 7 5.2 8.7 0.00 0.15 0.01 66 1009.3
20260505124105 59 37 5.2 7.8 0.00 0.15 0.01 68 1009.5
20260505123605 59 27 5.2 7.8 0.00 0.15 0.01 68 1009.5
20260505122105 59 19 5.2 10.4 0.00 0.15 0.01 69 1009.6
20260505120105 59 17 5.2 10.4 0.00 0.15 0.01 69 1009.5
20260505114605 59 29 7.8 10.4 0.00 0.15 0.01 67 1009.6
20260505114104 60 33 5.2 13.9 0.00 0.15 0.01 67 1009.7
20260505112105 59 357 5.2 10.4 0.00 0.15 0.01 69 1009.8
20260505111605 60 7 7.8 13.9 0.00 0.15 0.01 67 1009.9
20260505111105 60 358 6.1 12.2 0.00 0.15 0.01 67 1009.8
20260505100107 57 31 4.3 10.4 0.00 0.14 0.00 76 1010.1
20260505095105 57 13 4.3 10.4 0.00 0.14 0.00 76 1010.1
20260505094604 57 29 7.0 11.3 0.00 0.14 0.00 76 1010.2
20260505093605 57 34 3.5 8.7 0.00 0.14 0.00 78 1010.2
20260505091605 56 26 4.3 11.3 0.00 0.14 0.00 82 1010.4
20260505091105 55 25 4.3 8.7 0.00 0.14 0.00 81 1010.4
20260505090605 55 35 5.2 10.4 0.00 0.14 0.00 82 1010.4
20260505090105 55 2 6.1 11.3 0.00 0.14 0.00 83 1010.4
20260505085604 55 353 3.5 10.4 0.00 0.14 0.00 83 1010.4
20260505085105 55 17 5.2 8.7 0.00 0.14 0.00 84 1010.4
20260505084105 54 22 6.1 11.3 0.00 0.14 0.00 84 1010.4
20260505083605 54 17 4.3 8.7 0.00 0.14 0.00 85 1010.4
20260505082605 54 17 5.2 10.4 0.00 0.14 0.00 86 1010.4
20260505082105 53 26 4.3 7.8 0.00 0.14 0.00 86 1010.4
20260505081104 53 5 6.1 10.4 0.00 0.14 0.00 87 1010.4
20260505080605 53 5 4.3 8.7 0.00 0.14 0.00 88 1010.4
20260505074605 52 33 4.3 8.7 0.00 0.14 0.00 89 1010.3
20260505074105 52 14 6.1 10.4 0.00 0.14 0.00 90 1010.3
20260505073605 52 31 4.3 7.0 0.00 0.14 0.00 90 1010.3
20260505073104 51 30 4.3 7.8 0.00 0.14 0.00 90 1010.3
20260505072605 51 13 4.3 10.4 0.00 0.14 0.00 91 1010.4
20260505070605 51 28 4.3 7.8 0.00 0.14 0.00 91 1010.5
20260505065605 51 18 4.3 7.8 0.00 0.14 0.00 92 1010.5
20260505065104 50 15 4.3 8.7 0.00 0.14 0.00 92 1010.5
20260505064605 50 16 4.3 7.8 0.00 0.14 0.00 92 1010.5
20260505064104 50 5 3.5 5.2 0.00 0.14 0.00 92 1010.6
20260505062604 49 5 1.7 4.3 0.00 0.14 0.00 92 1010.5
20260505062105 49 5 2.6 6.1 0.00 0.14 0.00 92 1010.5
20260505061105 49 5 2.6 6.1 0.00 0.14 0.00 92 1010.5
20260505060605 49 5 2.6 6.1 0.00 0.14 0.00 92 1010.5
20260505060105 49 5 4.3 6.1 0.00 0.14 0.00 92 1010.5
20260505055105 49 5 4.3 6.1 0.00 0.14 0.00 92 1010.5
20260505050105 49 23 2.6 5.2 0.00 0.14 0.00 92 1010.4
20260505041105 50 30 2.6 2.6 0.00 0.14 0.00 91 1010.7
20260505034604 51 30 1.7 2.6 0.00 0.14 0.00 91 1010.7
20260505034105 51 30 1.7 2.6 0.00 0.14 0.00 91 1010.6
20260505033605 51 30 0.0 1.7 0.00 0.14 0.00 91 1010.7
20260505033105 51 30 0.0 2.6 0.00 0.14 0.00 91 1010.7
20260505032605 51 30 2.6 4.3 0.00 0.14 0.00 91 1010.8